Temperature
-1 -1 -1 -1 -1 -1 -2 -2 -3 -3 -3 -4 -4 -5 -4 -5 -5 -5 -5 -5 -5 -5 -5 -5 -5 -5 -4 -4 -3 -3 -3 -2 -2 -1 -1 -0 0 0 0 1 1 1 1 2
-2 -1 -1 -2 -2 -2 -2 -2 -3 -3 -4 -4 -4 -4 -5 -5 -5 -6 -6 -6 -6 -6 -6 -6 -6 -5 -5 -4 -4 -4 -3 -3 -2 -2 -1 -1 -1 -0 -0 -0 0 0 1 1
-3 -2 -2 -3 -3 -3 -3 -4 -4 -4 -5 -5 -5 -5 -5 -6 -6 -6 -7 -7 -7 -7 -6 -6 -6 -6 -6 -5 -4 -4 -4 -4 -3 -3 -2 -1 -1 -1 -1 -1 -0 -0 -0 0
-4 -3 -4 -3 -4 -4 -4 -5 -6 -6 -6 -6 -6 -6 -5 -6 -6 -7 -7 -7 -7 -7 -7 -7 -6 -6 -6 -5 -5 -5 -4 -4 -4 -3 -3 -2 -2 -2 -1 -1 -1 -1 -1 -0
-4 -4 -4 -4 -4 -4 -5 -6 -6 -6 -6 -6 -6 -6 -6 -6 -7 -7 -7 -7 -7 -7 -7 -7 -7 -7 -6 -5 -5 -5 -5 -4 -4 -4 -4 -3 -3 -2 -2 -2 -2 -1 -1 -1
-5 -5 -4 -4 -4 -4 -5 -6 -6 -6 -7 -7 -7 -8 -7 -7 -7 -7 -8 -8 -8 -8 -7 -7 -7 -7 -6 -6 -6 -5 -5 -5 -5 -4 -4 -4 -3 -3 -3 -3 -2 -2 -2 -1
-6 -6 -6 -6 -5 -5 -5 -6 -6 -6 -6 -7 -8 -8 -7 -8 -8 -8 -8 -8 -8 -8 -8 -8 -8 -7 -7 -7 -6 -6 -6 -5 -5 -5 -5 -4 -4 -3 -3 -3 -3 -3 -2 -2
-6 -6 -6 -5 -6 -6 -6 -6 -6 -6 -7 -7 -8 -8 -8 -8 -8 -8 -9 -8 -8 -8 -8 -8 -8 -8 -8 -7 -7 -6 -6 -6 -6 -5 -5 -5 -4 -4 -4 -4 -4 -3 -3 -2
-7 -6 -6 -5 -6 -6 -6 -6 -6 -7 -7 -8 -8 -8 -8 -9 -9 -9 -9 -9 -9 -9 -9 -8 -8 -8 -8 -8 -7 -7 -6 -6 -6 -6 -6 -5 -5 -5 -4 -4 -4 -4 -4 -3
-7 -7 -6 -6 -6 -6 -6 -7 -7 -7 -8 -8 -8 -9 -9 -9 -9 -9 -9 -9 -9 -9 -9 -9 -9 -9 -8 -8 -8 -7 -7 -7 -7 -6 -6 -6 -5 -5 -5 -5 -5 -5 -4 -4
-8 -8 -7 -6 -6 -6 -7 -7 -7 -8 -8 -8 -9 -9 -9 -10 -10 -10 -10 -10 -10 -10 -10 -10 -9 -9 -9 -8 -8 -8 -8 -7 -7 -7 -7 -6 -6 -6 -6 -5 -5 -5 -5 -4
-8 -7 -7 -6 -6 -7 -7 -7 -8 -8 -8 -9 -9 -9 -10 -10 -10 -10 -10 -10 -10 -10 -10 -10 -9 -9 -9 -9 -9 -9 -9 -8 -8 -8 -7 -7 -7 -6 -6 -6 -5 -5 -5 -5
-6 -6 -6 -6 -7 -7 -8 -8 -8 -9 -9 -9 -9 -10 -10 -10 -10 -10 -10 -10 -10 -10 -10 -10 -10 -9 -9 -9 -9 -9 -9 -9 -9 -8 -8 -8 -7 -7 -6 -6 -6 -6 -6 -5
-6 -7 -7 -7 -7 -8 -8 -8 -9 -9 -9 -9 -10 -10 -10 -10 -10 -10 -10 -11 -11 -11 -10 -10 -10 -10 -9 -9 -9 -9 -9 -9 -9 -9 -9 -8 -8 -8 -7 -7 -7 -6 -6 -6
-7 -7 -7 -8 -8 -8 -9 -9 -9 -9 -9 -10 -10 -10 -10 -11 -11 -11 -11 -11 -11 -11 -10 -10 -10 -10 -10 -10 -10 -9 -9 -9 -9 -9 -9 -9 -8 -8 -8 -7 -7 -7 -7 -6
-7 -8 -8 -8 -8 -9 -9 -9 -10 -10 -10 -10 -10 -11 -11 -11 -11 -11 -11 -11 -11 -11 -11 -11 -11 -10 -10 -10 -10 -10 -10 -9 -10 -10 -10 -9 -9 -9 -8 -8 -8 -8 -7 -7
-8 -8 -8 -9 -9 -9 -9 -10 -10 -10 -10 -11 -11 -11 -11 -11 -11 -11 -11 -11 -11 -11 -11 -11 -11 -11 -11 -11 -10 -10 -10 -10 -10 -10 -10 -10 -9 -9 -9 -9 -8 -8 -8 -8
-8 -8 -9 -9 -9 -10 -10 -10 -10 -10 -11 -11 -11 -11 -11 -11 -11 -11 -12 -11 -11 -11 -11 -11 -11 -11 -11 -11 -11 -11 -11 -10 -10 -10 -10 -10 -10 -10 -9 -9 -9 -9 -9 -8
-8 -9 -9 -9 -10 -10 -10 -10 -11 -11 -11 -11 -11 -11 -12 -12 -12 -12 -12 -12 -12 -12 -12 -12 -12 -11 -11 -11 -11 -11 -11 -11 -11 -11 -11 -10 -10 -10 -10 -10 -9 -9 -9 -9
-9 -9 -9 -10 -10 -10 -10 -11 -11 -11 -11 -12 -12 -12 -12 -12 -12 -12 -12 -12 -12 -13 -12 -12 -12 -12 -12 -12 -12 -12 -11 -11 -11 -11 -11 -11 -11 -11 -10 -10 -10 -10 -9 -9
-9 -9 -10 -10 -10 -11 -11 -11 -11 -11 -12 -12 -12 -12 -12 -12 -13 -13 -13 -12 -12 -13 -13 -13 -12 -12 -12 -12 -12 -12 -12 -12 -12 -12 -11 -11 -11 -11 -11 -10 -10 -10 -10 -9
-10 -10 -10 -11 -11 -11 -11 -11 -12 -12 -12 -12 -12 -13 -13 -13 -13 -13 -13 -13 -13 -13 -13 -13 -13 -13 -13 -13 -12 -12 -12 -12 -12 -12 -12 -12 -12 -11 -11 -11 -11 -10 -10 -10
-10 -11 -11 -11 -11 -11 -12 -12 -12 -12 -12 -13 -13 -13 -13 -13 -13 -13 -13 -13 -13 -13 -13 -13 -13 -13 -13 -13 -13 -13 -13 -13 -13 -12 -12 -12 -12 -12 -12 -11 -11 -11 -11 -10
-11 -11 -11 -11 -12 -12 -12 -12 -12 -13 -13 -13 -13 -13 -13 -13 -13 -13 -14 -14 -14 -14 -13 -13 -13 -13 -13 -13 -13 -13 -13 -13 -13 -13 -13 -13 -12 -12 -12 -12 -12 -11 -11 -11
-11 -11 -12 -12 -12 -12 -12 -13 -13 -13 -13 -13 -13 -13 -14 -14 -14 -14 -14 -14 -14 -14 -14 -14 -14 -14 -14 -14 -13 -14 -14 -13 -13 -13 -13 -13 -13 -13 -12 -12 -12 -12 -12 -11
-12 -12 -12 -13 -13 -13 -13 -13 -13 -13 -14 -14 -13 -14 -14 -14 -14 -14 -14 -14 -14 -14 -14 -14 -14 -14 -14 -14 -14 -14 -14 -14 -14 -14 -13 -13 -13 -13 -13 -12 -12 -12 -12 -12
-12 -13 -13 -13 -13 -13 -14 -14 -14 -14 -14 -14 -14 -14 -14 -14 -14 -14 -14 -14 -14 -14 -14 -14 -14 -14 -14 -14 -14 -14 -14 -14 -14 -14 -14 -13 -13 -13 -13 -13 -13 -12 -12 -12
Wind_Speed
6 6 4 4 5 4 4 5 6 6 6 6 4 5 5 6 7 9 10 11 11 11 11 11 12 12 12 11 10 9 9 8 8 8 7 7 5 4 4 4 3 2 2 2
4 4 4 5 5 5 5 4 5 6 6 3 3 3 4 6 7 8 10 11 12 12 12 12 12 13 13 12 11 9 8 7 8 8 7 7 6 4 4 4 3 3 3 3
4 4 4 5 4 3 2 1 3 5 4 3 5 5 5 6 6 7 9 10 11 12 11 11 11 11 12 12 11 10 8 7 7 8 7 7 6 4 4 4 4 3 3 3
3 3 5 4 1 0 1 1 1 0 2 3 5 6 5 3 4 7 10 11 11 11 11 11 10 11 11 11 10 10 9 8 8 8 8 7 5 5 4 4 4 3 3 3
1 3 6 4 1 1 1 2 1 1 3 4 6 5 4 3 5 7 8 9 9 10 10 11 11 11 11 11 10 10 10 9 8 7 7 7 6 5 4 4 4 3 3 3
2 3 5 4 2 1 1 3 2 1 3 4 5 5 5 7 8 9 9 8 9 10 10 10 11 10 11 11 10 10 10 9 8 7 7 7 6 5 4 3 4 3 3 3
4 5 6 4 3 1 1 5 2 2 3 3 3 5 7 9 9 9 9 9 10 10 9 10 11 10 11 11 11 11 10 9 8 7 7 6 6 4 4 4 3 3 3 3
4 4 7 2 1 3 5 2 1 2 2 4 5 7 8 9 10 10 10 10 10 10 10 10 10 10 11 11 12 11 9 9 8 8 6 6 5 5 4 3 3 3 3 4
6 6 3 2 3 2 1 2 2 3 4 4 6 7 9 9 9 9 10 10 9 10 11 10 9 9 10 12 11 10 9 8 8 8 6 6 5 5 4 3 3 3 3 3
3 5 3 2 1 1 1 2 3 3 4 4 6 8 8 9 9 9 9 9 9 10 11 11 11 10 10 11 10 9 9 8 7 6 6 5 4 4 3 3 3 3 3 3
4 4 3 3 3 3 2 2 3 4 4 5 6 7 7 8 9 9 10 9 9 9 10 11 11 11 11 11 10 9 8 7 7 6 5 5 5 4 4 4 4 4 3 3
6 5 5 5 3 2 2 4 4 5 5 5 5 7 8 8 8 8 9 9 10 10 11 11 11 11 11 11 9 8 8 7 6 5 5 4 5 5 7 6 7 7 5 4
5 4 4 4 3 2 3 4 4 4 5 6 6 6 7 7 8 8 9 10 10 11 11 11 11 11 11 11 10 8 8 7 6 5 5 5 5 4 5 6 7 6 6 5
3 1 2 3 3 3 3 4 3 4 4 5 6 6 7 7 8 9 10 10 10 10 11 10 10 11 11 10 10 8 7 7 7 5 5 5 5 4 4 4 4 4 5 5
2 3 4 3 3 2 2 2 3 5 5 6 5 6 7 8 9 10 10 10 10 10 10 10 10 11 11 10 9 8 7 5 5 5 4 4 4 4 4 4 3 3 4 4
2 2 3 3 4 4 3 3 5 6 6 6 6 7 8 8 9 9 9 9 9 10 11 11 11 11 11 10 9 7 6 8 7 5 4 4 4 4 4 3 3 3 3 4
2 3 3 4 4 4 4 4 5 6 6 6 7 8 8 8 9 9 9 9 8 9 10 10 11 11 10 9 8 6 6 6 8 6 4 4 4 4 3 3 3 3 3 4
4 4 4 4 4 5 5 5 5 5 5 6 7 7 7 7 8 9 10 9 9 9 9 9 10 10 10 9 8 6 5 5 5 4 4 4 4 3 3 3 3 3 3 4
2 3 3 4 4 4 4 5 5 5 5 5 6 6 7 7 8 8 8 8 9 10 10 10 15 12 10 10 10 6 5 5 5 5 5 6 5 4 3 3 3 3 3 3
2 2 3 3 3 3 4 5 5 5 5 5 5 6 7 7 7 8 8 7 6 7 10 12 11 9 9 9 9 5 5 5 5 5 5 4 4 4 4 3 3 3 3 3
3 3 3 4 4 4 4 4 4 5 5 5 5 6 7 8 7 7 7 8 8 9 10 13 9 8 8 9 9 5 5 5 5 4 5 4 4 4 4 4 3 3 3 3
3 3 4 4 4 5 5 4 4 5 5 5 6 6 7 7 7 7 6 6 8 12 9 7 7 10 11 10 5 5 5 5 5 4 4 4 4 4 4 4 4 3 3 2
3 3 3 4 4 5 5 4 4 4 5 5 6 6 6 6 5 6 7 6 7 12 9 6 10 14 14 7 5 5 5 5 5 5 4 4 4 4 4 4 4 3 3 3
2 3 3 3 3 3 4 5 5 4 5 5 5 5 5 5 5 4 5 10 13 13 7 10 14 14 12 6 5 5 5 5 5 5 4 4 4 4 3 3 3 3 3 3
2 2 2 3 3 3 4 5 5 5 5 4 5 5 4 4 5 6 6 7 11 11 7 10 14 13 8 5 5 5 5 5 5 4 4 4 4 4 3 3 3 3 3 3
2 2 2 3 3 3 3 3 4 4 4 5 5 5 5 4 5 5 5 6 8 10 8 6 7 8 6 6 6 6 5 6 6 5 4 4 4 4 4 4 4 4 4 4
2 2 2 2 3 3 3 3 4 4 5 5 6 5 5 5 5 5 6 6 6 6 6 6 6 6 6 6 6 6 5 5 5 5 4 4 4 4 4 4 4 4 4 4
Wind_Direction
261 275 267 267 276 263 222 219 233 257 258 277 292 302 318 335 341 348 349 349 346 342 339 340 340 340 337 333 330 329 327 324 320 318 318 320 312 308 308 309 295 278 270 268
286 280 283 286 288 271 256 251 248 266 277 295 309 323 333 337 341 344 342 339 339 337 336 336 337 336 334 333 330 325 320 319 320 322 321 322 319 319 316 311 294 285 274 265
276 308 331 284 271 255 248 277 244 253 268 319 331 329 321 324 331 332 333 333 334 332 330 329 329 329 328 327 327 325 320 320 322 324 321 319 317 319 316 315 316 304 294 282
285 340 258 252 319 152 178 323 8 105 315 322 314 305 303 312 327 328 330 329 327 327 326 325 325 328 327 328 329 327 324 321 322 323 317 314 315 312 313 316 311 297 295 289
238 271 277 289 314 352 242 281 285 241 309 322 330 329 310 325 332 321 317 315 315 317 318 321 324 326 328 329 329 328 322 320 317 317 313 311 310 304 308 311 310 299 290 290
181 237 256 257 284 310 100 283 263 247 290 315 344 332 299 317 322 317 317 318 319 319 320 324 325 328 331 329 328 325 319 315 313 314 310 304 299 295 300 299 298 300 294 285
212 236 264 258 281 31 165 267 273 261 278 289 272 256 282 307 312 314 316 318 322 323 324 323 325 330 329 327 324 317 315 315 315 314 307 302 303 295 294 294 297 298 294 290
192 221 256 249 129 178 228 262 267 275 278 279 281 290 301 309 313 317 319 321 324 324 323 324 328 330 327 325 320 318 317 316 315 314 309 309 308 307 298 282 280 285 285 291
199 219 244 199 195 214 189 231 255 260 275 279 291 296 304 308 310 312 316 318 321 320 320 323 327 328 323 320 321 321 321 316 315 314 311 310 306 303 303 291 276 273 269 275
242 254 249 236 224 247 226 242 263 269 278 281 287 294 301 306 311 314 315 317 319 320 320 320 323 323 319 317 321 321 319 318 316 314 313 310 304 298 292 286 283 279 276 273
251 269 286 255 234 246 272 283 292 296 287 285 289 295 298 303 306 310 314 316 316 316 315 315 319 319 320 321 321 320 318 317 318 314 309 309 308 296 286 274 276 281 274 272
231 227 214 248 244 239 258 275 278 286 296 298 293 293 299 300 302 305 309 313 316 316 315 314 316 316 319 321 319 316 317 319 317 316 312 310 310 315 311 304 303 298 298 296
224 234 221 245 255 241 247 265 275 277 281 294 297 294 298 300 303 307 310 314 314 313 312 312 314 316 319 321 318 312 310 313 313 315 316 315 315 315 320 327 326 317 311 311
224 205 250 248 252 260 261 272 283 291 290 292 296 301 303 303 306 309 310 310 310 311 313 314 316 317 319 320 318 312 308 310 313 310 313 315 314 310 309 315 326 334 331 332
241 223 235 260 274 280 284 292 302 303 304 305 304 305 306 307 307 306 306 310 313 314 315 318 319 318 320 321 322 319 314 313 312 313 315 315 315 315 314 314 320 328 338 340
254 255 250 255 266 277 285 286 289 293 298 301 304 305 303 301 301 303 307 312 315 316 318 320 319 320 323 326 325 323 318 319 322 319 317 317 318 318 319 322 326 332 335 334
221 258 261 269 272 277 274 271 273 283 291 293 296 301 306 309 310 312 314 314 310 308 312 316 317 321 325 327 326 323 319 320 323 321 316 313 311 310 312 315 316 320 323 326
221 234 238 242 255 269 279 280 280 284 285 288 298 305 308 311 312 313 316 319 320 319 321 321 322 326 328 329 329 328 328 328 329 324 320 316 315 315 315 315 316 317 326 330
242 249 259 259 256 258 269 276 281 283 287 293 299 300 300 301 303 308 314 320 324 324 326 325 329 333 329 329 333 332 333 332 333 330 326 325 327 325 320 317 316 316 317 325
269 271 274 281 280 267 271 277 279 285 288 291 295 299 303 305 308 311 314 311 308 307 312 321 326 327 327 326 332 331 332 332 331 333 336 335 331 328 324 319 316 316 319 322
278 284 286 286 287 283 276 278 280 285 291 291 289 293 297 302 306 310 314 313 313 317 321 326 331 328 327 330 332 338 338 335 335 336 334 332 331 331 330 327 322 319 321 322
275 279 282 284 285 291 292 288 281 284 292 295 295 297 302 307 310 309 300 296 307 322 328 322 324 329 335 338 345 343 339 336 334 333 331 329 329 329 330 332 330 324 320 319
274 276 283 286 285 288 297 296 288 287 290 294 298 300 299 299 303 307 309 311 314 321 326 322 328 333 339 349 348 341 337 336 332 330 326 325 324 325 326 329 328 330 330 323
280 287 290 295 301 303 305 306 303 299 293 291 293 294 298 304 303 292 291 311 324 325 325 327 334 337 343 351 340 335 333 331 328 324 325 326 327 326 326 330 333 334 333 331
289 291 296 307 310 302 300 307 311 309 308 307 305 303 299 290 291 303 307 310 321 326 324 328 334 338 343 334 332 328 327 326 323 324 328 329 326 324 326 326 323 320 322 321
294 292 288 287 290 299 308 312 314 315 317 316 315 313 309 304 299 302 307 311 314 322 325 321 323 328 329 326 324 323 322 324 329 330 327 324 323 321 320 319 316 312 309 307
320 315 313 317 321 320 316 314 314 315 316 313 311 313 316 317 317 317 316 316 317 318 317 318 319 319 319 320 320 320 320 320 320 319 317 313 313 312 311 309 307 306 306 304
Height
1543 1540 1539 1538 1537 1536 1537 1537 1539 1536 1535 1532 1531 1530 1528 1525 1522 1518 1515 1511 1507 1503 1499 1495 1490 1486 1482 1479 1476 1473 1470 1467 1465 1463 1462 1460 1459 1459 1458 1458 1458 1458 1459 1460
1544 1538 1537 1537 1535 1534 1534 1534 1534 1533 1533 1531 1529 1528 1526 1524 1521 1518 1514 1511 1507 1502 1498 1493 1489 1484 1480 1476 1473 1470 1467 1465 1463 1461 1459 1458 1457 1455 1455 1455 1455 1455 1456 1456
1546 1541 1539 1539 1537 1534 1534 1534 1535 1534 1534 1531 1529 1527 1525 1523 1520 1518 1514 1510 1506 1501 1497 1492 1488 1483 1479 1475 1471 1468 1465 1462 1460 1458 1456 1455 1455 1453 1452 1452 1451 1452 1452 1453
1548 1547 1548 1540 1535 1534 1535 1536 1535 1534 1533 1531 1529 1526 1524 1522 1520 1516 1513 1508 1504 1499 1495 1490 1486 1481 1477 1473 1469 1465 1462 1460 1458 1456 1454 1453 1452 1451 1450 1449 1449 1449 1450 1450
1550 1550 1543 1538 1535 1535 1535 1536 1535 1534 1532 1530 1528 1525 1522 1521 1518 1515 1511 1507 1502 1498 1493 1488 1483 1479 1474 1470 1466 1463 1460 1457 1455 1454 1452 1451 1449 1448 1447 1447 1447 1447 1447 1447
1551 1549 1544 1538 1535 1533 1535 1537 1533 1532 1531 1529 1527 1527 1522 1518 1515 1512 1508 1504 1499 1495 1490 1485 1480 1476 1471 1467 1464 1460 1457 1455 1453 1451 1449 1448 1446 1446 1445 1445 1444 1444 1444 1445
1550 1549 1542 1537 1533 1533 1539 1536 1532 1530 1529 1528 1526 1525 1521 1516 1512 1509 1505 1501 1496 1491 1486 1482 1477 1473 1468 1464 1461 1458 1455 1452 1450 1448 1446 1445 1444 1443 1442 1442 1441 1441 1441 1441
1548 1549 1543 1533 1532 1535 1534 1530 1529 1528 1527 1525 1523 1520 1517 1513 1509 1505 1501 1497 1492 1487 1483 1479 1475 1470 1465 1461 1458 1455 1452 1449 1447 1445 1443 1442 1441 1440 1439 1439 1438 1438 1437 1438
1541 1539 1532 1530 1530 1530 1529 1529 1527 1526 1525 1523 1520 1517 1513 1510 1506 1502 1498 1494 1489 1485 1480 1475 1471 1467 1462 1458 1455 1452 1449 1446 1444 1442 1440 1439 1438 1436 1436 1435 1435 1434 1434 1434
1535 1531 1529 1529 1528 1528 1527 1526 1525 1524 1522 1520 1517 1514 1510 1507 1503 1499 1494 1490 1486 1481 1476 1472 1468 1464 1460 1456 1452 1449 1446 1443 1441 1439 1437 1436 1435 1434 1433 1432 1432 1431 1431 1431
1532 1529 1528 1527 1526 1526 1525 1524 1522 1521 1519 1516 1513 1510 1507 1503 1499 1496 1491 1487 1483 1478 1474 1469 1465 1461 1457 1453 1449 1446 1443 1440 1438 1436 1434 1433 1431 1430 1430 1429 1430 1429 1428 1428
1529 1526 1526 1524 1524 1523 1522 1521 1519 1517 1515 1513 1510 1507 1504 1500 1496 1493 1488 1484 1480 1475 1471 1466 1462 1458 1454 1450 1447 1443 1440 1437 1435 1433 1432 1430 1428 1427 1427 1427 1426 1426 1426 1426
1523 1522 1522 1521 1521 1520 1519 1517 1516 1514 1512 1509 1507 1504 1500 1497 1493 1490 1485 1481 1477 1472 1468 1463 1459 1455 1451 1447 1444 1441 1438 1435 1433 1431 1429 1427 1426 1425 1423 1423 1423 1423 1422 1422
1520 1520 1519 1518 1518 1517 1516 1514 1513 1511 1509 1506 1503 1500 1497 1493 1490 1486 1482 1478 1474 1470 1465 1461 1456 1452 1448 1445 1441 1438 1436 1433 1431 1429 1427 1425 1424 1423 1422 1421 1420 1419 1419 1419
1518 1518 1517 1516 1515 1514 1512 1511 1509 1507 1505 1502 1500 1497 1493 1490 1486 1483 1479 1475 1471 1467 1462 1458 1454 1450 1446 1442 1438 1435 1433 1430 1428 1427 1425 1424 1422 1421 1421 1420 1419 1418 1417 1417
1515 1515 1514 1513 1512 1510 1509 1507 1505 1503 1501 1499 1496 1493 1490 1487 1483 1480 1476 1472 1468 1463 1459 1455 1451 1447 1443 1440 1436 1433 1431 1428 1426 1425 1423 1422 1421 1420 1419 1418 1417 1416 1415 1415
1512 1511 1510 1510 1509 1507 1506 1504 1502 1500 1498 1495 1493 1490 1487 1484 1480 1477 1473 1469 1465 1461 1457 1453 1449 1445 1442 1438 1434 1431 1428 1426 1425 1423 1421 1420 1419 1418 1417 1416 1416 1415 1414 1414
1510 1509 1508 1507 1506 1504 1503 1501 1499 1497 1495 1492 1490 1487 1484 1481 1477 1473 1470 1466 1462 1459 1455 1451 1447 1443 1440 1436 1433 1430 1427 1424 1423 1421 1419 1418 1417 1416 1415 1414 1414 1413 1412 1412
1507 1506 1505 1504 1503 1501 1500 1498 1496 1494 1492 1489 1487 1484 1481 1478 1474 1471 1467 1463 1459 1455 1452 1449 1445 1441 1438 1435 1432 1429 1426 1424 1421 1419 1418 1416 1415 1414 1413 1413 1412 1411 1411 1410
1504 1504 1502 1501 1500 1498 1496 1495 1493 1491 1488 1486 1483 1480 1478 1475 1472 1468 1464 1461 1458 1454 1450 1447 1443 1440 1436 1433 1431 1428 1425 1422 1420 1418 1416 1415 1414 1413 1412 1411 1410 1409 1409 1408
1502 1501 1499 1498 1497 1495 1493 1491 1489 1487 1485 1483 1480 1477 1474 1472 1469 1465 1461 1458 1455 1452 1448 1445 1441 1438 1435 1432 1429 1427 1424 1421 1419 1417 1415 1414 1412 1411 1410 1409 1408 1408 1407 1407
1499 1498 1496 1495 1493 1492 1490 1488 1486 1484 1481 1479 1477 1474 1471 1468 1465 1462 1459 1456 1453 1449 1446 1442 1439 1436 1433 1431 1428 1425 1422 1420 1418 1416 1414 1412 1410 1409 1408 1407 1406 1406 1405 1405
1496 1495 1493 1492 1490 1488 1487 1485 1483 1480 1478 1476 1473 1471 1468 1465 1463 1459 1456 1453 1450 1447 1444 1440 1437 1435 1432 1429 1425 1423 1420 1418 1416 1414 1412 1410 1409 1407 1406 1405 1405 1404 1403 1403
1493 1492 1490 1489 1487 1485 1483 1481 1479 1477 1475 1473 1471 1468 1465 1462 1460 1457 1454 1451 1448 1445 1441 1438 1435 1432 1429 1426 1423 1421 1418 1416 1414 1412 1410 1409 1407 1406 1405 1404 1403 1402 1402 1401
1490 1489 1487 1486 1484 1482 1480 1478 1476 1474 1472 1470 1468 1465 1463 1460 1457 1454 1451 1448 1445 1442 1439 1436 1433 1430 1427 1424 1421 1419 1417 1414 1412 1410 1409 1407 1406 1405 1404 1403 1402 1401 1400 1399
1487 1486 1485 1483 1481 1480 1477 1475 1473 1471 1469 1466 1464 1462 1460 1457 1454 1451 1448 1446 1443 1440 1437 1434 1431 1428 1425 1423 1420 1417 1415 1413 1411 1409 1407 1406 1404 1403 1402 1401 1400 1399 1398 1398
1485 1483 1482 1481 1479 1477 1475 1473 1471 1469 1466 1464 1461 1459 1457 1454 1451 1449 1446 1443 1440 1437 1434 1432 1429 1426 1423 1421 1418 1416 1413 1411 1409 1407 1406 1404 1403 1402 1401 1400 1399 1398 1397 1396